GFSFLT2_prec_snow_039.txt.gz
Snowfall_Accumulation
0.0 0.0 0.0 0.0 0.0 0.0 0.0 0.0 0.0 0.0 0.1 0.0 0.0 0.0 0.0 0.0 0.0 0.0 0.0 0.0 0.0 0.0 0.0 0.0 0.0 0.0 0.0
0.0 0.0 0.0 0.0 0.0 0.0 0.0 0.1 0.0 0.0 0.0 0.0 0.0 0.0 0.0 0.0 0.3 0.2 0.2 0.0 0.0 0.0 0.0 0.0 0.0 0.0 0.0
0.0 0.0 0.0 0.0 0.1 0.1 0.0 0.0 0.0 0.0 0.0 0.0 0.0 0.0 0.0 0.1 0.2 0.1 0.4 0.4 0.4 0.3 0.2 0.0 0.0 0.0 0.0
0.1 1.0 0.9 0.2 0.2 0.0 0.0 0.0 0.0 0.0 0.0 0.0 0.1 0.0 0.0 0.0 0.0 0.0 0.0 0.0 0.0 0.0 0.0 0.1 0.1 0.0 0.0
2.2 1.4 0.4 0.1 0.0 0.0 0.0 0.0 0.2 0.0 0.0 0.0 0.0 0.0 0.0 0.0 0.0 0.0 0.1 0.0 0.2 0.4 0.3 0.5 0.6 0.6 0.1
3.3 0.5 0.0 0.0 0.0 0.0 1.5 0.9 0.8 0.0 0.2 0.1 0.0 0.0 0.0 0.0 0.0 0.0 0.1 0.1 0.1 0.3 0.6 0.7 0.8 0.7 0.0
0.2 0.0 0.1 0.2 2.1 2.1 0.7 1.1 0.8 0.0 0.2 0.4 0.1 0.0 0.0 0.0 0.0 0.0 0.0 0.2 0.2 0.4 0.7 0.8 0.7 0.7 0.5
0.0 0.1 0.7 0.5 0.5 1.6 1.5 0.7 0.3 0.1 0.3 1.4 0.2 0.1 0.0 0.0 0.0 0.0 0.1 0.3 0.9 0.6 1.2 0.7 0.9 0.3 0.4
0.6 0.3 0.1 0.0 0.0 1.0 1.6 1.8 1.1 0.0 0.0 0.7 0.2 0.0 0.0 0.0 0.0 0.1 0.4 0.5 0.4 0.3 0.7 0.8 0.9 0.8 0.9
0.0 0.0 0.0 0.0 0.0 0.1 1.9 5.6 2.5 1.9 0.0 2.7 0.8 0.9 3.5 0.0 0.0 0.0 0.0 0.0 0.1 0.2 0.3 0.4 0.5 0.8 1.1
0.0 0.0 0.0 0.0 0.1 0.1 0.6 4.7 7.5 4.6 0.0 5.1 6.4 0.5 3.2 1.2 0.0 0.0 0.0 0.0 1.5 1.1 0.5 1.3 1.9 2.2 3.5
0.0 0.1 0.1 0.1 0.0 0.0 0.1 0.5 1.3 4.3 1.5 2.7 9.5 3.5 5.4 2.9 0.0 0.1 0.0 1.1 2.5 4.8 4.7 4.8 2.8 2.9 2.9
0.3 0.2 0.1 0.1 0.2 0.2 0.0 0.0 0.0 0.1 0.7 1.7 4.9 4.0 4.5 4.1 2.0 0.2 1.5 0.1 4.4 6.8 4.4 3.8 4.1 3.5 3.8
0.8 0.2 0.1 0.2 0.4 0.5 1.5 0.4 1.7 0.4 0.3 0.8 2.0 3.5 4.1 1.4 2.8 1.7 1.9 4.1 3.3 4.5 5.2 4.7 3.3 3.4 4.1
1.0 1.0 0.3 0.3 0.4 0.5 1.5 2.3 3.0 1.6 1.0 0.5 0.5 0.8 0.9 1.5 2.7 1.5 2.4 2.9 5.0 6.9 6.5 5.7 5.9 6.0 3.2
0.8 0.7 1.6 1.4 1.5 1.0 1.4 2.4 2.9 1.6 1.8 1.3 1.0 0.8 0.7 0.5 1.9 4.5 4.1 4.4 6.0 6.2 6.8 7.8 7.0 8.9 0.5
1.5 1.7 2.3 1.8 0.8 1.4 1.3 1.6 1.4 1.2 1.4 1.8 2.1 3.4 3.7 1.4 1.3 4.1 8.8 7.6 6.0 5.4 5.6 6.4 8.8 9.0 2.5

GFSFLT2_prec_snow_045.txt.gz
Snowfall_Accumulation
0.0 0.3 0.4 0.2 0.0 0.0 0.0 0.0 0.0 0.0 0.1 0.0 0.0 0.0 0.0 0.0 0.0 0.0 0.0 0.0 0.0 0.0 0.0 0.0 0.0 0.0 0.0
0.1 0.2 0.3 0.1 0.0 0.0 0.0 0.1 0.0 0.0 0.0 0.0 0.0 0.0 0.0 0.0 0.3 0.2 0.2 0.0 0.0 0.0 0.0 0.0 0.0 0.0 0.0
0.1 0.1 0.1 0.1 0.1 0.1 0.0 0.0 0.0 0.0 0.0 0.0 0.0 0.0 0.0 0.1 0.2 0.1 0.4 0.4 0.4 0.3 0.2 0.0 0.0 0.0 0.0
0.1 1.0 0.9 0.2 0.2 0.0 0.0 0.0 0.0 0.0 0.0 0.0 0.1 0.0 0.0 0.0 0.0 0.0 0.0 0.0 0.0 0.0 0.0 0.1 0.1 0.0 0.0
2.2 1.4 0.4 0.1 0.0 0.0 0.0 0.0 0.2 0.0 0.0 0.0 0.0 0.0 0.0 0.0 0.0 0.0 0.1 0.0 0.2 0.4 0.3 0.5 0.6 0.6 0.1
3.3 0.5 0.0 0.0 0.0 0.0 1.5 0.9 0.8 0.0 0.2 0.1 0.0 0.0 0.0 0.0 0.0 0.0 0.1 0.1 0.1 0.3 0.6 0.7 0.8 0.7 0.0
0.2 0.0 0.1 0.2 2.1 2.1 0.7 1.1 0.9 0.0 0.2 0.4 0.1 0.0 0.0 0.0 0.0 0.0 0.0 0.2 0.2 0.4 0.7 0.8 0.7 0.7 0.5
0.0 0.1 0.7 0.5 0.5 1.6 1.5 0.7 0.3 0.1 0.3 1.4 0.2 0.1 0.0 0.0 0.0 0.0 0.1 0.3 0.9 0.6 1.2 0.7 0.9 0.3 0.4
0.6 0.3 0.1 0.0 0.0 1.0 1.6 1.8 1.1 0.0 0.0 0.7 0.2 0.0 0.0 0.0 0.0 0.1 0.4 0.5 0.4 0.3 0.7 0.8 0.9 0.8 0.9
0.0 0.0 0.0 0.0 0.0 0.1 1.9 5.6 2.6 2.0 0.0 2.7 0.8 0.9 3.6 0.0 0.0 0.0 0.0 0.0 0.1 0.2 0.3 0.4 0.5 0.8 1.1
0.0 0.0 0.0 0.0 0.1 0.1 0.6 4.7 7.7 4.8 0.0 5.5 6.8 0.5 3.5 1.3 0.0 0.0 0.0 0.0 1.5 1.1 0.5 1.3 1.9 2.2 3.5
0.0 0.1 0.1 0.1 0.0 0.0 0.1 0.5 1.3 4.3 1.5 2.7 10.5 3.5 5.9 3.2 0.0 0.1 0.0 1.1 2.5 4.8 4.7 4.8 2.8 2.9 2.9
0.3 0.2 0.1 0.1 0.2 0.2 0.0 0.0 0.0 0.1 0.7 1.7 5.0 4.1 5.0 4.5 2.2 0.2 1.5 0.1 4.4 6.8 4.4 3.8 4.1 3.5 3.8
0.8 0.2 0.1 0.2 0.4 0.5 1.5 0.4 1.7 0.4 0.3 0.8 2.0 3.6 4.5 1.5 3.0 1.8 1.9 4.1 3.3 4.5 5.2 4.7 3.3 3.4 4.1
1.0 1.0 0.3 0.3 0.4 0.5 1.5 2.3 3.1 1.6 1.0 0.5 0.5 0.8 0.9 1.5 3.2 1.5 2.4 2.9 5.0 6.9 6.5 5.8 5.9 6.0 3.2
0.8 0.7 1.6 1.4 1.5 1.0 1.4 2.4 3.0 1.6 1.8 1.3 1.0 0.9 0.7 0.5 1.9 4.8 4.1 4.4 6.0 6.2 6.8 8.4 7.3 8.9 0.5
1.5 1.7 2.4 1.8 0.8 1.4 1.3 1.6 1.4 1.2 1.4 1.8 2.2 3.9 4.4 1.4 1.3 4.1 10.0 8.4 6.1 5.4 5.6 6.4 8.9 9.0 2.5

GFSFLT2_prec_snow_048.txt.gz
Snowfall_Accumulation
0.0 0.3 0.4 0.7 0.4 0.0 0.0 0.0 0.0 0.0 0.1 0.0 0.0 0.0 0.0 0.0 0.0 0.0 0.0 0.0 0.0 0.0 0.0 0.0 0.0 0.0 0.0
0.1 1.2 1.0 0.6 0.0 0.0 0.0 0.1 0.0 0.0 0.0 0.0 0.0 0.0 0.0 0.0 0.3 0.2 0.2 0.0 0.0 0.0 0.0 0.0 0.0 0.0 0.0
0.6 0.4 0.1 0.1 0.1 0.1 0.0 0.0 0.0 0.0 0.0 0.0 0.0 0.0 0.0 0.1 0.2 0.1 0.4 0.4 0.4 0.3 0.2 0.0 0.0 0.0 0.0
0.3 1.1 1.0 0.2 0.2 0.0 0.0 0.0 0.0 0.0 0.0 0.0 0.1 0.0 0.0 0.0 0.0 0.0 0.0 0.0 0.0 0.0 0.0 0.1 0.1 0.0 0.0
2.2 1.4 0.4 0.1 0.0 0.0 0.0 0.0 0.2 0.0 0.0 0.0 0.0 0.0 0.0 0.0 0.0 0.0 0.1 0.0 0.2 0.4 0.3 0.5 0.6 0.6 0.1
3.3 0.5 0.0 0.0 0.0 0.0 1.5 0.9 0.8 0.0 0.2 0.1 0.0 0.0 0.0 0.0 0.0 0.0 0.1 0.1 0.1 0.3 0.6 0.7 0.8 0.7 0.0
0.2 0.0 0.1 0.2 2.1 2.1 0.7 1.1 0.9 0.0 0.2 0.4 0.1 0.0 0.0 0.0 0.0 0.0 0.0 0.2 0.2 0.4 0.7 0.8 0.7 0.7 0.5
0.0 0.1 0.7 0.5 0.5 1.6 1.5 0.7 0.3 0.1 0.3 1.4 0.2 0.1 0.0 0.0 0.0 0.0 0.1 0.3 0.9 0.6 1.2 0.7 0.9 0.3 0.4
0.6 0.3 0.1 0.0 0.0 1.0 1.6 1.8 1.1 0.0 0.0 0.7 0.2 0.0 0.0 0.0 0.0 0.1 0.4 0.5 0.4 0.3 0.7 0.8 0.9 0.8 0.9
0.0 0.0 0.0 0.0 0.0 0.1 1.9 5.6 2.6 2.0 0.0 2.7 0.8 0.9 3.7 0.0 0.0 0.0 0.0 0.0 0.1 0.2 0.3 0.4 0.5 0.8 1.1
0.0 0.0 0.0 0.0 0.1 0.1 0.6 4.7 7.7 4.8 0.0 5.7 6.8 0.5 3.6 1.3 0.0 0.0 0.0 0.0 1.5 1.1 0.5 1.3 1.9 2.2 3.5
0.0 0.1 0.1 0.1 0.0 0.0 0.1 0.5 1.3 4.3 1.5 2.8 10.8 3.5 6.0 3.3 0.0 0.1 0.0 1.1 2.5 4.8 4.7 4.8 2.8 2.9 2.9
0.3 0.2 0.1 0.1 0.2 0.2 0.0 0.0 0.0 0.1 0.7 1.7 5.1 4.1 5.1 4.7 2.2 0.2 1.5 0.1 4.4 6.8 4.4 3.8 4.1 3.5 3.8
0.8 0.2 0.1 0.2 0.4 0.5 1.5 0.4 1.7 0.4 0.3 0.8 2.0 3.6 4.6 1.5 3.1 1.9 1.9 4.1 3.3 4.5 5.2 4.7 3.3 3.4 4.1
1.0 1.0 0.3 0.3 0.4 0.5 1.5 2.3 3.2 1.6 1.0 0.5 0.5 0.8 1.0 1.6 3.3 1.5 2.4 2.9 5.0 6.9 6.5 5.8 5.9 6.0 3.2
0.8 0.7 1.6 1.4 1.5 1.0 1.4 2.4 3.0 1.6 1.8 1.3 1.0 0.9 0.7 0.5 1.9 4.8 4.1 4.4 6.0 6.2 6.9 8.5 7.3 8.9 0.5
1.5 1.8 2.4 1.8 0.8 1.4 1.3 1.6 1.5 1.2 1.4 1.8 2.2 4.1 4.7 1.5 1.3 4.1 10.0 8.4 6.1 5.4 5.6 6.4 8.9 9.0 2.5

GFSFLT2_prec_snow_051.txt.gz
Snowfall_Accumulation
0.0 0.3 0.4 0.7 0.4 0.0 0.0 0.0 0.0 0.0 0.1 0.0 0.0 0.0 0.0 0.0 0.0 0.0 0.0 0.0 0.0 0.0 0.0 0.0 0.0 0.0 0.0
0.1 1.2 2.2 1.8 0.8 0.3 0.0 0.1 0.0 0.0 0.0 0.0 0.0 0.0 0.0 0.0 0.3 0.2 0.2 0.0 0.0 0.0 0.0 0.0 0.0 0.0 0.0
0.6 1.5 0.9 0.5 0.3 0.1 0.0 0.0 0.0 0.0 0.0 0.0 0.0 0.0 0.0 0.1 0.2 0.1 0.4 0.4 0.4 0.3 0.2 0.0 0.0 0.0 0.0
0.5 1.1 1.0 0.2 0.2 0.0 0.0 0.0 0.0 0.0 0.0 0.0 0.1 0.0 0.0 0.0 0.0 0.0 0.0 0.0 0.0 0.0 0.0 0.1 0.1 0.0 0.0
2.2 1.4 0.4 0.1 0.0 0.0 0.0 0.0 0.2 0.0 0.0 0.0 0.0 0.0 0.0 0.0 0.0 0.0 0.1 0.0 0.2 0.4 0.3 0.5 0.6 0.6 0.1
3.3 0.5 0.0 0.0 0.0 0.0 1.5 0.9 0.8 0.0 0.2 0.1 0.0 0.0 0.0 0.0 0.0 0.0 0.1 0.1 0.1 0.3 0.6 0.7 0.8 0.7 0.0
0.2 0.0 0.1 0.2 2.1 2.1 0.7 1.1 0.9 0.0 0.2 0.4 0.1 0.0 0.0 0.0 0.0 0.0 0.0 0.2 0.2 0.4 0.7 0.8 0.7 0.7 0.5
0.0 0.1 0.7 0.5 0.5 1.6 1.5 0.7 0.3 0.1 0.3 1.4 0.2 0.1 0.0 0.0 0.0 0.0 0.1 0.3 0.9 0.6 1.2 0.7 0.9 0.3 0.4
0.6 0.3 0.1 0.0 0.0 1.0 1.6 1.8 1.1 0.0 0.0 0.7 0.2 0.0 0.0 0.0 0.0 0.1 0.4 0.5 0.4 0.3 0.7 0.8 0.9 0.8 0.9
0.0 0.0 0.0 0.0 0.0 0.1 1.9 5.6 2.6 2.0 0.0 2.7 0.8 0.9 3.7 0.0 0.0 0.0 0.0 0.0 0.1 0.2 0.3 0.4 0.5 0.8 1.1
0.0 0.0 0.0 0.0 0.1 0.1 0.6 4.7 7.7 4.8 0.0 5.7 6.8 0.5 3.6 1.3 0.0 0.0 0.0 0.0 1.5 1.1 0.5 1.3 1.9 2.2 3.5
0.0 0.1 0.1 0.1 0.0 0.0 0.1 0.5 1.3 4.3 1.5 2.8 10.9 3.5 6.1 3.3 0.1 0.1 0.0 1.1 2.5 4.8 4.7 4.8 2.8 2.9 2.9
0.3 0.2 0.1 0.1 0.2 0.2 0.0 0.0 0.0 0.1 0.7 1.7 5.1 4.1 5.2 4.8 2.3 0.2 1.5 0.1 4.4 6.8 4.4 3.8 4.1 3.5 3.8
0.8 0.2 0.1 0.2 0.4 0.5 1.5 0.4 1.7 0.4 0.3 0.8 2.0 3.7 4.7 1.6 3.2 2.0 1.9 4.2 3.3 4.5 5.2 4.7 3.3 3.4 4.1
1.0 1.0 0.3 0.3 0.4 0.5 1.5 2.3 3.2 1.6 1.0 0.5 0.5 0.8 1.1 1.7 3.4 1.5 2.4 2.9 5.0 6.9 6.5 5.9 5.9 6.0 3.2
0.8 0.7 1.6 1.4 1.5 1.0 1.4 2.5 3.0 1.6 1.8 1.3 1.0 0.9 0.7 0.5 1.9 4.8 4.1 4.4 6.0 6.2 6.9 8.6 7.3 8.9 0.5
1.5 1.8 2.4 1.8 0.8 1.5 1.3 1.6 1.5 1.2 1.4 1.8 2.2 4.2 4.9 1.6 1.3 4.1 10.0 8.4 6.1 5.4 5.6 6.4 8.9 9.0 2.5

GFSFLT2_prec_snow_054.txt.gz
Snowfall_Accumulation
0.0 0.3 0.4 0.7 0.4 0.0 0.0 0.0 0.0 0.0 0.1 0.0 0.0 0.0 0.0 0.0 0.0 0.0 0.0 0.0 0.0 0.0 0.0 0.0 0.0 0.0 0.0
0.1 1.2 2.2 1.8 0.8 0.3 0.0 0.1 0.0 0.0 0.0 0.0 0.0 0.0 0.0 0.0 0.3 0.2 0.2 0.0 0.0 0.0 0.0 0.0 0.0 0.0 0.0
0.6 1.5 0.9 0.5 0.3 0.1 0.0 0.0 0.0 0.0 0.0 0.0 0.0 0.0 0.0 0.1 0.2 0.1 0.4 0.4 0.4 0.3 0.2 0.0 0.0 0.0 0.0
0.5 1.1 1.0 0.2 0.2 0.0 0.0 0.0 0.0 0.0 0.0 0.0 0.1 0.0 0.0 0.0 0.0 0.0 0.0 0.0 0.0 0.0 0.0 0.1 0.1 0.0 0.0
2.2 1.4 0.4 0.1 0.0 0.0 0.0 0.0 0.2 0.0 0.0 0.0 0.0 0.0 0.0 0.0 0.0 0.0 0.1 0.0 0.2 0.4 0.3 0.5 0.6 0.6 0.1
3.3 0.5 0.0 0.0 0.0 0.0 1.5 0.9 0.8 0.0 0.2 0.1 0.0 0.0 0.0 0.0 0.0 0.0 0.1 0.1 0.1 0.3 0.6 0.7 0.8 0.7 0.0
0.2 0.0 0.1 0.2 2.1 2.1 0.7 1.1 0.9 0.0 0.2 0.4 0.1 0.0 0.0 0.0 0.0 0.0 0.0 0.2 0.2 0.4 0.7 0.8 0.7 0.7 0.5
0.0 0.1 0.7 0.5 0.5 1.6 1.5 0.7 0.3 0.1 0.3 1.4 0.2 0.1 0.0 0.0 0.0 0.0 0.1 0.3 0.9 0.6 1.2 0.7 0.9 0.3 0.4
0.6 0.3 0.1 0.0 0.0 1.0 1.6 1.8 1.1 0.0 0.0 0.7 0.2 0.0 0.0 0.0 0.0 0.1 0.4 0.5 0.4 0.3 0.7 0.8 0.9 0.8 0.9
0.0 0.0 0.0 0.0 0.0 0.1 1.9 5.6 2.6 2.0 0.0 2.7 0.8 0.9 3.7 0.0 0.0 0.0 0.0 0.0 0.1 0.2 0.3 0.4 0.5 0.8 1.1
0.0 0.0 0.0 0.0 0.1 0.1 0.6 4.7 7.7 4.8 0.0 5.7 6.8 0.5 3.6 1.3 0.0 0.0 0.0 0.0 1.5 1.1 0.5 1.3 1.9 2.2 3.5
0.0 0.1 0.1 0.1 0.0 0.0 0.1 0.5 1.3 4.3 1.5 2.8 11.0 3.5 6.2 3.4 0.1 0.1 0.0 1.1 2.5 4.8 4.7 4.8 2.8 2.9 2.9
0.3 0.2 0.1 0.1 0.2 0.2 0.0 0.0 0.0 0.1 0.7 1.7 5.1 4.1 5.3 4.9 2.4 0.2 1.5 0.1 4.4 6.8 4.4 3.8 4.1 3.5 3.8
0.8 0.2 0.1 0.2 0.4 0.5 1.5 0.4 1.7 0.4 0.3 0.8 2.0 3.7 4.9 1.7 3.3 2.1 1.9 4.2 3.3 4.5 5.2 4.7 3.3 3.4 4.1
1.0 1.0 0.3 0.3 0.4 0.5 1.5 2.3 3.3 1.6 1.0 0.5 0.5 0.8 1.1 1.7 3.5 1.5 2.4 2.9 5.0 6.9 6.5 5.9 5.9 6.0 3.2
0.8 0.7 1.6 1.4 1.5 1.0 1.4 2.5 3.1 1.6 1.8 1.3 1.0 1.0 0.7 0.5 1.9 4.8 4.1 4.4 6.0 6.2 6.9 8.6 7.3 8.9 0.5
1.5 1.8 2.4 1.9 0.9 1.5 1.3 1.6 1.6 1.2 1.4 1.8 2.3 4.3 5.1 1.7 1.3 4.1 10.0 8.4 6.1 5.4 5.6 6.4 8.9 9.0 2.5

GFSFLT2_prec_snow_057.txt.gz
Snowfall_Accumulation
0.0 0.3 0.4 0.7 0.4 0.0 0.0 0.0 0.0 0.0 0.1 0.0 0.0 0.0 0.0 0.0 0.0 0.0 0.0 0.0 0.0 0.0 0.0 0.0 0.0 0.0 0.0
0.1 1.2 2.2 1.8 0.8 0.3 0.0 0.1 0.0 0.0 0.0 0.0 0.0 0.0 0.0 0.0 0.3 0.2 0.2 0.0 0.0 0.0 0.0 0.0 0.0 0.0 0.0
0.6 1.5 0.9 0.5 0.3 0.1 0.0 0.0 0.0 0.0 0.0 0.0 0.0 0.0 0.0 0.1 0.2 0.1 0.4 0.4 0.4 0.3 0.2 0.0 0.0 0.0 0.0
0.5 1.1 1.0 0.2 0.2 0.0 0.0 0.0 0.0 0.0 0.0 0.0 0.1 0.0 0.0 0.0 0.0 0.0 0.0 0.0 0.0 0.0 0.0 0.1 0.1 0.0 0.0
2.2 1.4 0.4 0.1 0.0 0.0 0.0 0.0 0.2 0.0 0.0 0.0 0.0 0.0 0.0 0.0 0.0 0.0 0.1 0.0 0.2 0.4 0.3 0.5 0.6 0.6 0.1
3.3 0.5 0.0 0.0 0.0 0.0 1.5 0.9 0.8 0.0 0.2 0.1 0.0 0.0 0.0 0.0 0.0 0.0 0.1 0.1 0.1 0.3 0.6 0.7 0.8 0.7 0.0
0.2 0.0 0.1 0.2 2.1 2.1 0.7 1.1 0.9 0.0 0.2 0.4 0.1 0.0 0.0 0.0 0.0 0.0 0.0 0.2 0.2 0.4 0.7 0.8 0.7 0.7 0.5
0.0 0.1 0.7 0.5 0.5 1.6 1.5 0.7 0.3 0.1 0.3 1.4 0.2 0.1 0.0 0.0 0.0 0.0 0.1 0.3 0.9 0.6 1.2 0.7 0.9 0.3 0.4
0.6 0.3 0.1 0.0 0.0 1.0 1.6 1.8 1.1 0.0 0.0 0.7 0.2 0.0 0.0 0.0 0.0 0.1 0.4 0.5 0.4 0.3 0.7 0.8 0.9 0.8 0.9
0.0 0.0 0.0 0.0 0.0 0.1 1.9 5.6 2.6 2.0 0.0 2.7 0.8 0.9 3.7 0.0 0.0 0.0 0.0 0.0 0.1 0.2 0.3 0.4 0.5 0.8 1.1
0.0 0.0 0.0 0.0 0.1 0.1 0.6 4.7 7.7 4.8 0.0 5.7 6.8 0.5 3.6 1.3 0.0 0.0 0.0 0.0 1.5 1.1 0.5 1.3 1.9 2.2 3.5
0.0 0.1 0.1 0.1 0.0 0.0 0.1 0.5 1.3 4.3 1.5 2.8 11.1 3.5 6.3 3.5 0.1 0.1 0.0 1.1 2.5 4.8 4.7 4.8 2.8 2.9 2.9
0.3 0.2 0.1 0.1 0.2 0.2 0.0 0.0 0.0 0.1 0.7 1.7 5.2 4.1 5.5 5.1 2.5 0.2 1.5 0.1 4.4 6.8 4.4 3.8 4.1 3.5 3.8
0.8 0.2 0.1 0.2 0.4 0.5 1.5 0.4 1.7 0.4 0.3 0.8 2.0 3.7 5.0 1.7 3.4 2.1 1.9 4.2 3.3 4.5 5.2 4.7 3.3 3.4 4.1
1.0 1.0 0.3 0.3 0.4 0.5 1.5 2.3 3.3 1.6 1.0 0.5 0.5 0.8 1.1 1.7 3.6 1.5 2.4 2.9 5.0 6.9 6.5 5.9 5.9 6.0 3.2
0.8 0.7 1.6 1.4 1.5 1.1 1.4 2.5 3.1 1.6 1.8 1.3 1.0 1.0 0.7 0.6 1.9 4.8 4.1 4.4 6.0 6.2 6.9 8.7 7.3 8.9 0.5
1.5 1.8 2.4 1.9 0.9 1.5 1.3 1.7 1.6 1.2 1.4 1.8 2.3 4.3 5.3 1.8 1.3 4.1 10.0 8.4 6.1 5.4 5.6 6.4 8.9 9.0 2.5

GFSFLT2_prec_snow_063.txt.gz
Snowfall_Accumulation
0.0 0.3 0.4 0.7 0.4 0.0 0.0 0.0 0.0 0.0 0.1 0.0 0.0 0.0 0.0 0.0 0.0 0.0 0.0 0.0 0.0 0.0 0.0 0.0 0.0 0.0 0.0
0.1 1.2 2.2 1.8 0.8 0.3 0.0 0.1 0.0 0.0 0.0 0.0 0.0 0.0 0.0 0.0 0.3 0.2 0.2 0.0 0.0 0.0 0.0 0.0 0.0 0.0 0.0
0.6 1.5 0.9 0.5 0.3 0.1 0.0 0.0 0.0 0.0 0.0 0.0 0.0 0.0 0.0 0.1 0.2 0.1 0.4 0.4 0.4 0.3 0.2 0.0 0.0 0.0 0.0
0.5 1.1 1.0 0.2 0.2 0.1 0.1 0.0 0.0 0.0 0.0 0.0 0.1 0.0 0.0 0.0 0.0 0.0 0.0 0.0 0.0 0.0 0.0 0.1 0.1 0.0 0.0
2.2 1.4 0.4 0.1 0.1 0.0 0.0 0.0 0.2 0.0 0.0 0.0 0.0 0.0 0.0 0.0 0.0 0.0 0.1 0.0 0.2 0.4 0.3 0.5 0.6 0.6 0.1
3.3 0.5 0.0 0.0 0.0 0.0 1.5 0.9 0.8 0.0 0.2 0.1 0.0 0.0 0.0 0.0 0.0 0.0 0.1 0.1 0.1 0.3 0.6 0.7 0.8 0.7 0.0
0.2 0.0 0.1 0.2 2.1 2.1 0.7 1.1 0.9 0.0 0.2 0.4 0.1 0.0 0.0 0.0 0.0 0.0 0.0 0.2 0.2 0.4 0.7 0.8 0.7 0.7 0.5
0.0 0.1 0.7 0.5 0.5 1.6 1.5 0.7 0.3 0.1 0.3 1.4 0.2 0.1 0.0 0.0 0.0 0.0 0.1 0.3 0.9 0.6 1.2 0.7 0.9 0.3 0.4
0.6 0.3 0.1 0.0 0.0 1.0 1.6 1.8 1.1 0.0 0.0 0.7 0.2 0.0 0.0 0.0 0.0 0.1 0.4 0.5 0.4 0.3 0.7 0.8 0.9 0.8 0.9
0.0 0.0 0.0 0.0 0.0 0.1 1.9 5.6 2.6 2.0 0.0 2.7 0.8 0.9 3.7 0.0 0.0 0.0 0.0 0.0 0.1 0.2 0.3 0.4 0.5 0.8 1.1
0.0 0.0 0.0 0.0 0.1 0.1 0.6 4.7 7.7 4.8 0.0 5.7 6.8 0.5 3.6 1.3 0.0 0.0 0.0 0.0 1.5 1.1 0.5 1.3 1.9 2.2 3.5
0.0 0.1 0.1 0.1 0.0 0.0 0.1 0.5 1.3 4.3 1.5 2.8 11.2 3.5 6.3 3.6 0.1 0.1 0.0 1.1 2.5 4.8 4.7 4.8 2.8 2.9 2.9
0.3 0.2 0.1 0.1 0.2 0.2 0.0 0.0 0.0 0.1 0.7 1.7 5.2 4.2 5.7 5.2 2.5 0.2 1.5 0.1 4.4 6.8 4.4 3.8 4.1 3.5 3.8
0.8 0.2 0.1 0.2 0.4 0.5 1.5 0.4 1.7 0.4 0.3 0.8 2.0 3.7 5.3 1.9 3.6 2.1 1.9 4.2 3.3 4.5 5.2 4.7 3.3 3.4 4.1
1.0 1.0 0.3 0.3 0.4 0.5 1.5 2.3 3.4 1.6 1.0 0.5 0.5 0.8 1.1 1.8 3.9 1.5 2.4 2.9 5.0 6.9 6.5 5.9 5.9 6.0 3.2
0.8 0.7 1.6 1.4 1.5 1.1 1.4 2.5 3.1 1.6 1.8 1.3 1.0 1.0 0.7 0.6 1.9 4.8 4.1 4.4 6.0 6.2 6.9 8.7 7.3 8.9 0.5
1.5 1.8 2.4 1.9 0.9 1.5 1.3 1.7 1.6 1.2 1.4 1.8 2.3 4.3 5.5 1.8 1.3 4.1 10.0 8.4 6.1 5.4 5.6 6.4 8.9 9.0 2.5

GFSFLT2_prec_snow_066.txt.gz
Snowfall_Accumulation
0.0 0.3 0.4 0.7 0.4 0.0 0.0 0.0 0.0 0.0 0.1 0.0 0.0 0.0 0.0 0.0 0.0 0.0 0.0 0.0 0.0 0.0 0.0 0.0 0.0 0.0 0.0
0.1 1.2 2.2 1.8 0.8 0.3 0.0 0.1 0.0 0.0 0.0 0.0 0.0 0.0 0.0 0.0 0.3 0.2 0.2 0.0 0.0 0.0 0.0 0.0 0.0 0.0 0.0
0.6 1.5 0.9 0.5 0.3 0.1 0.0 0.0 0.0 0.0 0.0 0.0 0.0 0.0 0.0 0.1 0.2 0.1 0.4 0.4 0.4 0.3 0.2 0.0 0.0 0.0 0.0
0.5 1.1 1.0 0.2 0.2 0.1 0.1 0.0 0.0 0.0 0.0 0.0 0.1 0.0 0.0 0.0 0.0 0.0 0.0 0.0 0.0 0.0 0.0 0.1 0.1 0.0 0.0
2.2 1.4 0.4 0.1 0.1 0.0 0.0 0.0 0.2 0.0 0.0 0.0 0.0 0.0 0.0 0.0 0.0 0.0 0.1 0.0 0.2 0.4 0.3 0.5 0.6 0.6 0.1
3.3 0.5 0.0 0.0 0.0 0.0 1.5 0.9 0.8 0.0 0.2 0.1 0.0 0.0 0.0 0.0 0.0 0.0 0.1 0.1 0.1 0.3 0.6 0.7 0.8 0.7 0.0
0.2 0.0 0.1 0.2 2.1 2.1 0.7 1.1 0.9 0.0 0.2 0.4 0.1 0.0 0.0 0.0 0.0 0.0 0.0 0.2 0.2 0.4 0.7 0.8 0.7 0.7 0.5
0.0 0.1 0.7 0.5 0.5 1.6 1.5 0.7 0.3 0.1 0.3 1.4 0.2 0.1 0.0 0.0 0.0 0.0 0.1 0.3 0.9 0.6 1.2 0.7 0.9 0.3 0.4
0.6 0.3 0.1 0.0 0.0 1.0 1.6 1.8 1.1 0.0 0.0 0.7 0.2 0.0 0.0 0.0 0.0 0.1 0.4 0.5 0.4 0.3 0.7 0.8 0.9 0.8 0.9
0.0 0.0 0.0 0.0 0.0 0.1 1.9 5.6 2.6 2.0 0.0 2.7 0.8 0.9 3.7 0.0 0.0 0.0 0.0 0.0 0.1 0.2 0.3 0.4 0.5 0.8 1.1
0.0 0.0 0.0 0.0 0.1 0.1 0.6 4.7 7.7 4.8 0.0 5.7 6.8 0.5 3.6 1.3 0.0 0.0 0.0 0.0 1.5 1.1 0.5 1.3 1.9 2.2 3.5
0.0 0.1 0.1 0.1 0.0 0.0 0.1 0.5 1.3 4.3 1.5 2.8 11.3 3.5 6.3 3.6 0.1 0.1 0.0 1.1 2.5 4.8 4.7 4.8 2.8 2.9 2.9
0.3 0.2 0.1 0.1 0.2 0.2 0.0 0.0 0.0 0.1 0.7 1.7 5.2 4.2 5.8 5.3 2.5 0.2 1.5 0.1 4.4 6.8 4.4 3.8 4.1 3.5 3.8
0.8 0.2 0.1 0.2 0.4 0.5 1.5 0.4 1.7 0.4 0.3 0.8 2.0 3.7 5.4 1.9 3.6 2.1 1.9 4.2 3.3 4.5 5.2 4.7 3.3 3.4 4.1
1.0 1.0 0.3 0.3 0.4 0.5 1.5 2.3 3.4 1.6 1.0 0.5 0.5 0.8 1.1 1.8 3.9 1.5 2.4 2.9 5.0 6.9 6.5 5.9 5.9 6.0 3.2
0.8 0.7 1.6 1.4 1.5 1.1 1.4 2.6 3.2 1.6 1.8 1.3 1.0 1.0 0.7 0.6 1.9 4.8 4.1 4.4 6.0 6.2 6.9 8.7 7.3 8.9 0.5
1.5 1.8 2.4 1.9 0.9 1.5 1.3 1.7 1.6 1.2 1.4 1.8 2.3 4.4 5.6 1.8 1.3 4.1 10.0 8.4 6.1 5.4 5.6 6.4 8.9 9.0 2.5

GFSFLT2_prec_snow_069.txt.gz
Snowfall_Accumulation
0.0 0.3 0.4 0.7 0.4 0.0 0.0 0.0 0.0 0.0 0.1 0.0 0.0 0.0 0.0 0.0 0.0 0.0 0.0 0.0 0.0 0.0 0.0 0.0 0.0 0.0 0.0
0.1 1.2 2.2 1.8 0.8 0.3 0.0 0.1 0.0 0.0 0.0 0.0 0.0 0.0 0.0 0.0 0.3 0.2 0.2 0.0 0.0 0.0 0.0 0.0 0.0 0.0 0.0
0.6 1.5 0.9 0.5 0.3 0.1 0.0 0.0 0.0 0.0 0.0 0.0 0.0 0.0 0.0 0.1 0.2 0.1 0.4 0.4 0.4 0.3 0.2 0.0 0.0 0.0 0.0
0.5 1.1 1.0 0.2 0.2 0.1 0.1 0.0 0.0 0.0 0.0 0.0 0.1 0.0 0.0 0.0 0.0 0.0 0.0 0.0 0.0 0.0 0.0 0.1 0.1 0.0 0.0
2.2 1.4 0.4 0.1 0.1 0.0 0.0 0.0 0.2 0.0 0.0 0.0 0.0 0.0 0.0 0.0 0.0 0.0 0.1 0.0 0.2 0.4 0.3 0.5 0.6 0.6 0.1
3.3 0.5 0.0 0.0 0.0 0.0 1.5 0.9 0.8 0.0 0.2 0.1 0.0 0.0 0.0 0.0 0.0 0.0 0.1 0.1 0.1 0.3 0.6 0.7 0.8 0.7 0.0
0.2 0.0 0.1 0.2 2.1 2.1 0.7 1.1 0.9 0.0 0.2 0.4 0.1 0.0 0.0 0.0 0.0 0.0 0.0 0.2 0.2 0.4 0.7 0.8 0.7 0.7 0.5
0.0 0.1 0.7 0.5 0.5 1.6 1.5 0.7 0.3 0.1 0.3 1.4 0.2 0.1 0.0 0.0 0.0 0.0 0.1 0.3 0.9 0.6 1.2 0.7 0.9 0.3 0.4
0.6 0.3 0.1 0.0 0.0 1.0 1.6 1.8 1.1 0.0 0.0 0.7 0.2 0.0 0.0 0.0 0.0 0.1 0.4 0.5 0.4 0.3 0.7 0.8 0.9 0.8 0.9
0.0 0.0 0.0 0.0 0.0 0.1 1.9 5.6 2.6 2.0 0.0 2.7 0.8 0.9 3.7 0.0 0.0 0.0 0.0 0.0 0.1 0.2 0.3 0.4 0.5 0.8 1.1
0.0 0.0 0.0 0.0 0.1 0.1 0.6 4.7 7.7 4.8 0.0 5.7 6.8 0.5 3.6 1.3 0.0 0.0 0.0 0.0 1.5 1.1 0.5 1.3 1.9 2.2 3.5
0.0 0.1 0.1 0.1 0.0 0.0 0.1 0.5 1.3 4.3 1.5 2.8 11.3 3.5 6.3 3.6 0.1 0.1 0.0 1.1 2.5 4.8 4.7 4.8 2.8 2.9 2.9
0.3 0.2 0.1 0.1 0.2 0.2 0.0 0.0 0.0 0.1 0.7 1.7 5.2 4.2 5.9 5.4 2.6 0.2 1.5 0.1 4.4 6.8 4.4 3.8 4.1 3.5 3.8
0.8 0.2 0.1 0.2 0.4 0.5 1.5 0.4 1.7 0.4 0.3 0.8 2.0 3.7 5.4 1.9 3.6 2.1 1.9 4.2 3.3 4.5 5.2 4.7 3.3 3.4 4.1
1.0 1.0 0.3 0.3 0.4 0.5 1.5 2.3 3.4 1.6 1.0 0.5 0.5 0.8 1.1 1.8 3.9 1.5 2.4 2.9 5.0 6.9 6.5 5.9 5.9 6.0 3.2
0.8 0.7 1.6 1.4 1.5 1.1 1.4 2.6 3.2 1.6 1.8 1.3 1.0 1.0 0.7 0.6 1.9 4.8 4.1 4.4 6.0 6.2 6.9 8.7 7.3 8.9 0.5
1.5 1.8 2.4 1.9 0.9 1.5 1.3 1.7 1.6 1.2 1.4 1.8 2.3 4.4 5.6 1.8 1.3 4.1 10.0 8.4 6.1 5.4 5.6 6.4 8.9 9.0 2.5

GFSFLT2_prec_snow_072.txt.gz
Snowfall_Accumulation
0.0 0.3 0.4 0.7 0.4 0.0 0.0 0.0 0.0 0.0 0.1 0.0 0.0 0.0 0.0 0.0 0.0 0.0 0.0 0.0 0.0 0.0 0.0 0.0 0.0 0.0 0.0
0.1 1.2 2.2 1.8 0.8 0.3 0.0 0.1 0.0 0.0 0.0 0.0 0.0 0.0 0.0 0.0 0.3 0.2 0.2 0.0 0.0 0.0 0.0 0.0 0.0 0.0 0.0
0.6 1.5 0.9 0.5 0.3 0.1 0.0 0.0 0.0 0.0 0.0 0.0 0.0 0.0 0.0 0.1 0.2 0.1 0.4 0.4 0.4 0.3 0.2 0.0 0.0 0.0 0.0
0.5 1.1 1.0 0.2 0.2 0.1 0.1 0.0 0.0 0.0 0.0 0.0 0.1 0.0 0.0 0.0 0.0 0.0 0.0 0.0 0.0 0.0 0.0 0.1 0.1 0.0 0.0
2.2 1.4 0.4 0.1 0.1 0.0 0.0 0.0 0.2 0.0 0.0 0.0 0.0 0.0 0.0 0.0 0.0 0.0 0.1 0.0 0.2 0.4 0.3 0.5 0.6 0.6 0.1
3.3 0.5 0.0 0.0 0.0 0.0 1.5 0.9 0.8 0.0 0.2 0.1 0.0 0.0 0.0 0.0 0.0 0.0 0.1 0.1 0.1 0.3 0.6 0.7 0.8 0.7 0.0
0.2 0.0 0.1 0.2 2.1 2.1 0.7 1.1 0.9 0.0 0.2 0.4 0.1 0.0 0.0 0.0 0.0 0.0 0.0 0.2 0.2 0.4 0.7 0.8 0.7 0.7 0.5
0.0 0.1 0.7 0.5 0.5 1.6 1.5 0.7 0.3 0.1 0.3 1.4 0.2 0.1 0.0 0.0 0.0 0.0 0.1 0.3 0.9 0.6 1.2 0.7 0.9 0.3 0.4
0.6 0.3 0.1 0.0 0.0 1.0 1.6 1.8 1.1 0.0 0.0 0.7 0.2 0.0 0.0 0.0 0.0 0.1 0.4 0.5 0.4 0.3 0.7 0.8 0.9 0.8 0.9
0.0 0.0 0.0 0.0 0.0 0.1 1.9 5.6 2.6 2.0 0.0 2.7 0.8 0.9 3.7 0.0 0.0 0.0 0.0 0.0 0.1 0.2 0.3 0.4 0.5 0.8 1.1
0.0 0.0 0.0 0.0 0.1 0.1 0.6 4.7 7.7 4.8 0.0 5.7 6.8 0.5 3.6 1.3 0.0 0.0 0.0 0.0 1.5 1.1 0.5 1.3 1.9 2.2 3.5
0.0 0.1 0.1 0.1 0.0 0.0 0.1 0.5 1.3 4.3 1.5 2.8 11.4 3.6 6.3 3.6 0.1 0.1 0.0 1.1 2.5 4.8 4.7 4.8 2.8 2.9 2.9
0.3 0.2 0.1 0.1 0.2 0.2 0.0 0.0 0.0 0.1 0.7 1.7 5.2 4.2 5.9 5.4 2.6 0.2 1.5 0.1 4.4 6.8 4.4 3.8 4.1 3.5 3.8
0.8 0.2 0.1 0.2 0.4 0.5 1.5 0.4 1.7 0.4 0.3 0.8 2.0 3.7 5.4 1.9 3.6 2.1 1.9 4.2 3.3 4.5 5.2 4.7 3.3 3.4 4.1
1.0 1.0 0.3 0.3 0.4 0.5 1.5 2.3 3.4 1.6 1.0 0.5 0.5 0.8 1.1 1.8 3.9 1.5 2.4 2.9 5.0 6.9 6.5 5.9 5.9 6.0 3.2
0.8 0.7 1.6 1.4 1.5 1.1 1.4 2.6 3.2 1.6 1.8 1.3 1.0 1.0 0.7 0.6 1.9 4.8 4.1 4.4 6.0 6.2 6.9 8.7 7.3 8.9 0.5
1.5 1.8 2.4 1.9 0.9 1.5 1.3 1.7 1.6 1.2 1.4 1.8 2.3 4.4 5.6 1.8 1.3 4.1 10.0 8.4 6.1 5.4 5.6 6.4 8.9 9.0 2.5